Location: Eferding
(48.3167°N, 14.0167°E)
Time: 10:54:06
(UTC+00:00)

H-2A R/B - Pass Details

Date: 12 November 2019
Orbit: 733 x 838 km, 98.3° (Epoch: 10 December)

Event Time Altitude Azimuth Distance (km) Brightness Sun altitude
Exits shadow 19:02:21 20° 344° (NNW) 1,846 4.2 -35.3°
Drops below altitude 10° 19:03:53 10° 345° (NNW) 2,435 4.9 -35.6°
Sets 19:06:14 0° 346° (NNW) 3,361 5.6 -35.9°
